Location: Cabeza Gorda
(40.0667°N, 4.9667°W)
Time: 18:57:12
(UTC+00:00)

Sich 1 - Pass Details

Date: 15 January 2026
Orbit: 571 x 598 km, 82.5° (Epoch: 10 February)

Event Time Altitude Azimuth Distance (km) Brightness Sun altitude
Rises 06:06:49 0° 208° (SSW) 2,803 6.3 -17.5°
Reaches altitude 10° 06:09:11 10° 217° (SW) 1,903 5.3 -17.1°
Maximum altitude 06:13:00 33° 283° (WNW) 982 3.5 -16.4°
Drops below altitude 10° 06:16:49 10° 348° (NNW) 1,901 5.3 -15.7°
Sets 06:19:11 0° 358° (N) 2,801 6.3 -15.3°
